K6NC Weather Reports


Display with metric or nautical units.
time (UTC)temp
F
wind
direction
speed
MPH
gust
MPH
rain 1hr
in
rain 24hr
in
rain mn
in
humidity
%
barometer
mb
20260504173028 57 245 3.0 7.0 0.00 0.02 0.02 81 1015.0
20260504172512 57 227 4.0 7.0 0.00 0.02 0.02 80 1015.0
20260504172014 57 212 3.0 8.0 0.00 0.02 0.02 79 1015.0
20260504171543 57 221 5.0 8.0 0.00 0.02 0.02 80 1015.0
20260504171011 57 217 6.0 8.0 0.00 0.02 0.02 81 1015.0
20260504170512 57 228 4.0 7.0 0.00 0.02 0.02 80 1015.0
20260504151013 56 164 5.0 9.0 0.02 0.02 0.02 90 1014.4
20260504150512 55 184 2.0 7.0 0.02 0.02 0.02 90 1014.3
20260504141010 53 0 0.0 6.0 0.00 0.00 0.00 89 1014.2
20260504140512 53 0 1.0 6.0 0.00 0.00 0.00 88 1014.2
20260504130512 53 0 0.0 3.0 0.00 0.00 0.00 89 1014.2
20260504110511 53 0 0.0 3.0 0.00 0.00 0.00 86 1013.9
20260504100514 53 246 3.0 5.0 0.00 0.00 0.00 86 1013.7
20260504090106 54 176 1.0 4.0 0.00 0.00 0.00 85 1014.0
20260504081532 54 213 2.0 5.0 0.00 0.00 0.00 84 1013.8
20260504081015 54 0 1.0 7.0 0.00 0.00 0.00 84 1013.8
20260504080511 54 214 4.0 7.0 0.00 0.00 0.00 84 1013.8
20260504050514 56 242 6.0 10.0 0.00 0.00 0.00 79 1013.3
20260504045513 56 233 5.0 9.0 0.00 0.00 0.00 79 1013.3
20260504045013 56 269 6.0 9.0 0.00 0.00 0.00 78 1013.2
20260504044531 56 227 4.0 8.0 0.00 0.00 0.00 78 1013.0
20260504044010 57 257 3.0 9.0 0.00 0.00 0.00 77 1013.0
20260504043511 57 228 3.0 10.0 0.00 0.00 0.00 77 1013.0
20260504043044 57 253 6.0 10.0 0.00 0.00 0.00 76 1013.0
20260504042510 57 246 5.0 11.0 0.00 0.00 0.00 76 1013.0
20260504042011 58 251 6.0 11.0 0.00 0.00 0.00 76 1013.0
20260504041536 58 262 4.0 10.0 0.00 0.00 0.00 76 1012.9
20260504041013 58 254 6.0 10.0 0.00 0.00 0.00 75 1013.1
20260504040510 58 246 5.0 9.0 0.00 0.00 0.00 75 1012.9
20260504040030 58 241 5.0 10.0 0.00 0.00 0.00 74 1012.8
20260504035514 58 248 6.0 12.0 0.00 0.00 0.00 74 1012.9
20260504035009 58 259 7.0 12.0 0.00 0.00 0.00 74 1012.6
20260504034530 58 269 6.0 8.0 0.00 0.00 0.00 75 1012.7
20260504034018 59 230 4.0 8.0 0.00 0.00 0.00 74 1012.7
20260504033513 59 235 5.0 11.0 0.00 0.00 0.00 73 1012.6
20260504033031 59 267 5.0 11.0 0.00 0.00 0.00 72 1012.5
20260504032513 59 286 7.0 12.0 0.00 0.00 0.00 72 1012.3
20260504032013 59 288 6.0 12.0 0.00 0.00 0.00 72 1012.2
20260504031530 59 265 5.0 9.0 0.00 0.00 0.00 71 1012.2
20260504031013 60 276 5.0 10.0 0.00 0.00 0.00 70 1012.1
20260504030514 60 271 5.0 12.0 0.00 0.00 0.00 70 1012.1
20260504030033 60 283 6.0 12.0 0.00 0.00 0.00 70 1012.1
20260504025514 60 248 8.0 12.0 0.00 0.00 0.00 69 1012.1
20260504025011 61 273 7.0 12.0 0.00 0.00 0.00 68 1012.0
20260504024529 61 271 8.0 13.0 0.00 0.00 0.00 66 1011.9
20260504024012 61 279 9.0 13.0 0.00 0.00 0.00 66 1011.7
20260504023513 62 268 8.0 14.0 0.00 0.00 0.00 65 1011.8
20260504023031 62 264 9.0 15.0 0.00 0.00 0.00 64 1011.8
20260504022514 62 288 8.0 15.0 0.00 0.00 0.00 64 1011.7
20260504022011 62 270 9.0 15.0 0.00 0.00 0.00 63 1011.7
20260504021527 63 268 11.0 15.0 0.00 0.00 0.00 63 1011.6
20260504021012 63 252 8.0 15.0 0.00 0.00 0.00 63 1011.6
20260504020512 63 247 10.0 16.0 0.00 0.00 0.00 63 1011.5
20260504020031 63 250 9.0 16.0 0.00 0.00 0.00 62 1011.4
20260504015511 64 254 11.0 16.0 0.00 0.00 0.00 62 1011.3
20260504015009 64 254 9.0 16.0 0.00 0.00 0.00 64 1011.3
20260504014538 64 253 10.0 16.0 0.00 0.00 0.00 63 1011.3
20260504014010 64 251 9.0 15.0 0.00 0.00 0.00 63 1011.3
20260504013513 65 251 10.0 15.0 0.00 0.00 0.00 63 1011.3
20260504013029 65 261 10.0 15.0 0.00 0.00 0.00 61 1011.2
20260504012513 65 248 9.0 15.0 0.00 0.00 0.00 62 1011.2
20260504012013 65 281 9.0 14.0 0.00 0.00 0.00 63 1011.3
20260504011529 65 246 8.0 12.0 0.00 0.00 0.00 63 1011.2
20260504011012 65 270 9.0 12.0 0.00 0.00 0.00 62 1011.2
20260504010513 65 273 9.0 12.0 0.00 0.00 0.00 62 1011.2
20260504010035 65 249 7.0 14.0 0.00 0.00 0.00 62 1011.2
20260504005514 65 240 8.0 16.0 0.00 0.00 0.00 62 1011.1
20260504005016 66 259 11.0 16.0 0.00 0.00 0.00 60 1011.2
20260504004532 67 244 9.0 14.0 0.00 0.00 0.00 62 1011.1
20260504004014 67 214 8.0 12.0 0.00 0.00 0.00 62 1011.1
20260504003515 66 252 6.0 10.0 0.00 0.00 0.00 62 1011.1
20260504003035 65 267 7.0 11.0 0.00 0.00 0.00 65 1011.2
20260504002510 65 250 6.0 11.0 0.00 0.00 0.00 63 1011.2
20260504002016 65 260 8.0 12.0 0.00 0.00 0.00 62 1011.1
20260504001536 65 271 7.0 13.0 0.00 0.00 0.00 61 1011.1
20260504001013 66 294 7.0 13.0 0.00 0.00 0.00 64 1011.2
20260504000513 66 306 7.0 12.0 0.00 0.00 0.00 64 1011.1
20260504000031 66 259 7.0 11.0 0.00 0.00 0.00 63 1011.1
20260503235513 67 278 6.0 11.0 0.00 0.00 0.00 63 1011.3
20260503235013 68 286 6.0 11.0 0.00 0.00 0.00 61 1011.3
20260503234531 67 271 5.0 10.0 0.00 0.00 0.00 62 1011.2
20260503234012 67 246 5.0 11.0 0.00 0.00 0.00 59 1011.2
20260503233512 67 252 7.0 11.0 0.00 0.00 0.00 59 1011.2
20260503233029 67 247 6.0 11.0 0.00 0.00 0.00 59 1011.3
20260503232516 67 268 7.0 10.0 0.00 0.00 0.00 61 1011.4
20260503232014 67 275 6.0 9.0 0.00 0.00 0.00 61 1011.4
20260503231530 67 251 5.0 11.0 0.00 0.00 0.00 59 1011.2
20260503231013 67 262 6.0 11.0 0.00 0.00 0.00 63 1011.2
20260503230510 67 259 4.0 11.0 0.00 0.00 0.00 63 1011.2
20260503230034 67 260 7.0 13.0 0.00 0.00 0.00 60 1011.1
20260503225513 67 238 6.0 13.0 0.00 0.00 0.00 61 1011.1
20260503225016 67 202 3.0 11.0 0.00 0.00 0.00 61 1011.1
20260503224534 67 267 5.0 11.0 0.00 0.00 0.00 64 1011.0
20260503224013 68 267 5.0 9.0 0.00 0.00 0.00 60 1011.2
20260503223517 68 218 4.0 9.0 0.00 0.00 0.00 60 1011.2
20260503223029 67 225 6.0 10.0 0.00 0.00 0.00 62 1011.3
20260503222515 67 239 5.0 11.0 0.00 0.00 0.00 63 1011.3
20260503222015 67 190 6.0 11.0 0.00 0.00 0.00 62 1011.2
20260503221533 67 233 4.0 14.0 0.00 0.00 0.00 62 1011.3
20260503221016 67 262 7.0 14.0 0.00 0.00 0.00 63 1011.5
20260503220514 67 244 8.0 12.0 0.00 0.00 0.00 60 1011.4
20260503220031 68 266 7.0 12.0 0.00 0.00 0.00 63 1011.4
20260503215513 69 254 6.0 15.0 0.00 0.00 0.00 62 1011.6
20260503215013 69 230 9.0 15.0 0.00 0.00 0.00 59 1011.7
20260503214532 69 204 8.0 14.0 0.00 0.00 0.00 60 1011.7
20260503214012 69 254 6.0 14.0 0.00 0.00 0.00 61 1011.6
20260503213510 69 246 8.0 14.0 0.00 0.00 0.00 59 1011.7
20260503213030 67 217 6.0 14.0 0.00 0.00 0.00 66 1011.7
20260503212514 68 251 6.0 14.0 0.00 0.00 0.00 62 1011.7
20260503212011 67 231 8.0 14.0 0.00 0.00 0.00 62 1011.6
20260503211532 67 271 7.0 16.0 0.00 0.00 0.00 61 1011.6
20260503211010 68 220 10.0 16.0 0.00 0.00 0.00 61 1011.6
20260503210511 68 246 9.0 14.0 0.00 0.00 0.00 61 1011.8
20260503210033 68 244 10.0 14.0 0.00 0.00 0.00 62 1011.9
20260503205513 68 266 7.0 14.0 0.00 0.00 0.00 62 1011.8
20260503205013 69 254 7.0 15.0 0.00 0.00 0.00 57 1011.8
20260503204529 69 236 8.0 15.0 0.00 0.00 0.00 60 1011.7
20260503204017 69 267 8.0 14.0 0.00 0.00 0.00 59 1011.7
20260503203513 68 263 8.0 14.0 0.00 0.00 0.00 60 1011.8
20260503203032 67 221 6.0 15.0 0.00 0.00 0.00 62 1012.0
20260503202511 67 278 10.0 15.0 0.00 0.00 0.00 61 1012.1
20260503202013 69 219 6.0 13.0 0.00 0.00 0.00 58 1012.0
20260503201532 69 254 9.0 13.0 0.00 0.00 0.00 58 1012.0
20260503201011 69 229 5.0 13.0 0.00 0.00 0.00 65 1012.0
20260503200510 69 238 9.0 13.0 0.00 0.00 0.00 60 1011.9
20260503200032 68 261 7.0 15.0 0.00 0.00 0.00 61 1012.0
20260503195510 67 254 9.0 15.0 0.00 0.00 0.00 62 1012.0
20260503195010 68 267 9.0 15.0 0.00 0.00 0.00 58 1012.0
20260503194533 68 257 8.0 13.0 0.00 0.00 0.00 61 1012.0
20260503194011 68 294 8.0 13.0 0.00 0.00 0.00 65 1012.0
20260503193511 65 235 6.0 14.0 0.00 0.00 0.00 65 1012.0
20260503193031 66 279 8.0 14.0 0.00 0.00 0.00 60 1012.0
20260503192512 66 261 7.0 13.0 0.00 0.00 0.00 65 1012.0
20260503192010 65 272 8.0 14.0 0.00 0.00 0.00 63 1012.1
20260503191537 65 232 7.0 15.0 0.00 0.00 0.00 66 1012.2
20260503191013 64 262 10.0 15.0 0.00 0.00 0.00 66 1012.1
20260503190511 64 231 6.0 13.0 0.00 0.00 0.00 65 1012.2
20260503190030 63 234 8.0 14.0 0.00 0.00 0.00 67 1012.3
20260503185510 63 240 7.0 14.0 0.00 0.00 0.00 65 1012.3
20260503185014 64 254 7.0 12.0 0.00 0.00 0.00 66 1012.3
20260503184530 64 193 5.0 12.0 0.00 0.00 0.00 65 1012.3
20260503184010 64 263 7.0 15.0 0.00 0.00 0.00 67 1012.3
20260503183514 64 235 9.0 15.0 0.00 0.00 0.00 67 1012.4
20260503183032 63 218 8.0 15.0 0.00 0.00 0.00 69 1012.5
20260503182512 63 224 7.0 13.0 0.00 0.00 0.00 72 1012.5
20260503182011 62 229 8.0 13.0 0.00 0.00 0.00 70 1012.5
20260503181530 61 227 9.0 17.0 0.00 0.00 0.00 70 1012.4
20260503181011 61 226 9.0 18.0 0.00 0.00 0.00 70 1012.4
20260503180515 61 203 10.0 18.0 0.00 0.00 0.00 71 1012.4
20260503180044 61 255 9.0 14.0 0.00 0.00 0.00 70 1012.5
20260503175510 61 253 8.0 14.0 0.00 0.00 0.00 70 1012.5
20260503175011 60 227 9.0 14.0 0.00 0.00 0.00 71 1012.5
20260503174534 60 234 8.0 14.0 0.00 0.00 0.00 71 1012.6
20260503174011 61 233 8.0 15.0 0.00 0.00 0.00 71 1012.5
20260503173512 61 221 9.0 15.0 0.00 0.00 0.00 70 1012.5